Tracking 20383 objects as of 23-Feb-2020
HD Live streaming from Space Station
objects crossing your sky now
Track the group of recently launched Starlink satellites

OPS 9324 (IDSCS 11)

Track OPS 9324 (IDSCS 11) now!
OPS 9324 (IDSCS 11) is classified as:


NORAD ID: 2651
Int'l Code: 1967-003D
Perigee: 33,586.6 km
Apogee: 33,876.6 km
Inclination: 4.0 °
Period: 1,332.0 minutes
Semi major axis: 40102 km
RCS: 0.1995 m2 (medium)
Launch date: January 18, 1967
Source: United States (US)
Launch site: AIR FORCE EASTERN TEST RANGE (AFETR)
aabbcc
Your satellite tracking list
Your tracking list is empty




NASA's NSSDC Master Catalog

Two Line Element Set (TLE):
1  2651U 67003D   20054.26538765 -.00000073  00000-0  00000+0 0  9993
2  2651   4.0347  58.2032 0036164  33.1134 143.4005  1.08104542115367
Source of the keplerian elements: AFSPC